[[{"header":{"parameterUnit":"m.s-1","parameterCategory":2,"la1":30.2992,"la2":30.254,"lo1":-89.0895,"lo2":-89.0443,"dy":0.0025,"dx":0.0025,"nx":19,"ny":19,"refTime":"2026-05-11T09:00:00:Z","depth":"0","parameterNumber":2,"parameterNumberName":"U-component_of_CURRENTS"},"data":[0,0,0,-0.2206,-0.2207,-0.2243,-0.2243,-0.2268,-0.2268,0,0,0,0,0,0,0,0,0,0,0,-0.2191,-0.2191,-0.2206,-0.2207,-0.2243,-0.2243,-0.2268,-0.2268,0,0,0,0,0,0,0,0,0,0,0,-0.2191,-0.2191,-0.2191,-0.2207,-0.2243,-0.2243,-0.2268,-0.2246,0,0,0,0,0,0,0,0,0,0,-0.2214,-0.219,-0.2191,-0.2191,-0.2207,-0.2243,-0.2243,-0.2245,-0.2247,-0.2246,0,-0.2251,0,-0.2262,-0.227,-0.227,0,0,0,-0.2206,-0.2188,-0.2211,-0.2191,-0.2208,-0.2243,-0.2226,-0.2247,-0.2249,-0.2249,-0.2252,-0.2253,-0.2262,-0.227,-0.227,-0.2333,-0.2334,0,0,-0.2204,-0.2185,-0.221,-0.2213,-0.2216,-0.2225,-0.2228,-0.2248,-0.2242,-0.2252,-0.2254,-0.2263,-0.227,-0.227,-0.2333,-0.2333,0,0,0,-0.2199,-0.2183,-0.2206,-0.2211,-0.222,-0.2226,-0.2229,-0.2241,-0.2252,-0.2254,-0.2263,-0.227,-0.227,-0.2332,-0.2333,-0.2395,0,0,0,-0.2198,-0.2181,-0.2205,-0.2192,-0.222,-0.2231,-0.2221,-0.2251,-0.2254,-0.2263,-0.227,-0.227,-0.2331,-0.2332,-0.2392,-0.2424,0,0,0,-0.2189,-0.2179,-0.2187,-0.2191,-0.2209,-0.2231,-0.2243,-0.2252,-0.2259,-0.227,-0.227,-0.2331,-0.2332,-0.239,-0.2419,-0.2478,0,0,0,-0.2165,-0.2182,-0.2186,-0.2223,-0.2208,-0.2275,-0.2243,-0.2275,-0.2289,-0.227,-0.2331,-0.2333,-0.2389,-0.2416,-0.2474,-0.248,-0.2496,0,0,-0.2178,-0.2182,-0.2213,-0.2219,-0.2296,-0.227,-0.2341,-0.2333,-0.2307,-0.2321,-0.2323,-0.2393,-0.2419,-0.2477,-0.2555,-0.2569,0,0,0,-0.2215,-0.223,-0.2257,-0.2301,-0.2347,-0.2386,-0.2379,-0.238,-0.239,-0.2321,-0.2402,-0.2417,-0.2452,-0.2448,-0.2459,-0.2301,-0.2339,-0.2339,-0.2339,-0.2182,-0.2244,-0.2305,-0.2377,-0.2421,-0.2464,-0.2494,-0.2491,-0.2451,-0.2465,-0.2475,-0.2571,-0.2567,-0.2576,-0.2413,-0.2479,-0.248,-0.248,-0.248,-0.2202,-0.2234,-0.2335,-0.2405,-0.2479,-0.253,-0.2594,-0.2579,-0.2614,-0.2554,-0.2584,-0.2522,-0.2592,-0.2413,-0.2484,-0.2483,-0.2483,-0.2483,-0.2482,-0.2141,-0.2172,-0.2233,-0.236,-0.2476,-0.2563,-0.2674,-0.2683,-0.2673,-0.2703,-0.2689,-0.2688,-0.2526,-0.271,-0.2711,-0.2711,-0.2712,-0.2712,-0.2712,-0.2035,-0.2114,-0.2183,-0.2321,-0.2428,-0.2562,-0.2707,-0.2766,-0.2796,-0.2768,-0.2768,-0.2541,-0.2641,-0.2626,-0.2718,-0.2717,-0.2717,-0.2716,-0.2715,-0.1949,-0.1989,-0.2086,-0.2189,-0.2441,-0.2523,-0.2721,-0.2847,-0.2917,-0.2933,-0.2656,-0.2808,-0.2792,-0.2782,-0.277,-0.2895,-0.2895,-0.2895,-0.2895,-0.1883,-0.1912,-0.2037,-0.218,-0.237,-0.2506,-0.257,-0.2631,-0.2651,-0.2578,-0.2639,-0.2553,-0.2552,-0.2515,-0.2511,-0.2491,-0.2542,-0.2541,-0.2541,-0.1853,-0.1893,-0.1944,-0.2085,-0.2324,-0.2421,-0.2343,-0.2265,-0.2366,-0.2508,-0.2419,-0.2435,-0.2284,-0.2297,-0.2218,-0.2225,-0.2184,0,0]},{"header":{"parameterUnit":"m.s-1","parameterCategory":2,"la1":30.2992,"la2":30.254,"lo1":-89.0895,"lo2":-89.0443,"dy":0.0025,"dx":0.0025,"nx":19,"ny":19,"refTime":"2026-05-11T09:00:00:Z","depth":"0","parameterNumber":3,"parameterNumberName":"V-component_of_CURRENTS"},"data":[0,0,0,-0.0453,-0.0454,-0.0459,-0.0459,-0.0371,-0.037,0,0,0,0,0,0,0,0,0,0,0,-0.0441,-0.0442,-0.0453,-0.0454,-0.0459,-0.0459,-0.0371,-0.037,0,0,0,0,0,0,0,0,0,0,0,-0.0441,-0.0442,-0.0442,-0.0454,-0.0459,-0.0458,-0.0371,-0.0385,0,0,0,0,0,0,0,0,0,0,-0.0389,-0.0379,-0.0442,-0.0442,-0.0454,-0.0459,-0.0458,-0.0386,-0.0384,-0.0349,0,-0.0364,0,-0.0379,-0.0364,-0.0364,0,0,0,-0.0429,-0.0381,-0.0411,-0.0442,-0.0455,-0.0459,-0.0449,-0.0385,-0.0383,-0.0346,-0.0363,-0.0361,-0.0377,-0.0364,-0.0363,-0.0295,-0.0295,0,0,-0.0428,-0.0408,-0.0414,-0.041,-0.0472,-0.045,-0.045,-0.0384,-0.0369,-0.0363,-0.036,-0.0376,-0.0363,-0.0363,-0.0295,-0.0295,0,0,0,-0.0445,-0.0407,-0.044,-0.0413,-0.0429,-0.045,-0.0451,-0.0371,-0.0391,-0.0359,-0.0375,-0.0363,-0.0362,-0.0295,-0.0295,-0.0336,0,0,0,-0.0443,-0.0419,-0.044,-0.0422,-0.0432,-0.0408,-0.0438,-0.0395,-0.0389,-0.0375,-0.0363,-0.0361,-0.0295,-0.0295,-0.0335,-0.037,0,0,0,-0.0438,-0.0418,-0.0431,-0.0422,-0.0441,-0.0411,-0.0424,-0.0394,-0.0399,-0.0364,-0.0361,-0.0295,-0.0295,-0.0335,-0.0368,-0.036,0,0,0,-0.0399,-0.0413,-0.043,-0.0446,-0.0442,-0.0454,-0.0425,-0.0406,-0.0379,-0.0362,-0.0295,-0.0295,-0.0334,-0.0366,-0.0359,-0.0324,-0.0325,0,0,-0.0399,-0.0412,-0.0426,-0.0443,-0.0482,-0.0451,-0.0443,-0.0394,-0.036,-0.0306,-0.0305,-0.0336,-0.0367,-0.036,-0.0308,-0.031,0,0,0,-0.0415,-0.0434,-0.0444,-0.0472,-0.0481,-0.0478,-0.0432,-0.0403,-0.0356,-0.035,-0.0318,-0.0337,-0.0331,-0.0307,-0.0308,-0.0126,-0.0294,-0.0294,-0.0294,-0.0379,-0.0422,-0.0459,-0.0508,-0.0505,-0.0481,-0.0457,-0.0407,-0.0366,-0.035,-0.0357,-0.0365,-0.0339,-0.0339,-0.0152,-0.0333,-0.0333,-0.0333,-0.0333,-0.0421,-0.0468,-0.0497,-0.0553,-0.0556,-0.054,-0.0485,-0.0449,-0.04,-0.0375,-0.0366,-0.0336,-0.0344,-0.0143,-0.0335,-0.0335,-0.0335,-0.0334,-0.0334,-0.0432,-0.0469,-0.0506,-0.0596,-0.0614,-0.0594,-0.0604,-0.0533,-0.0449,-0.044,-0.0383,-0.0382,-0.0216,-0.0425,-0.0425,-0.0425,-0.0425,-0.0425,-0.0425,-0.0443,-0.049,-0.0586,-0.0647,-0.0706,-0.0729,-0.0676,-0.0638,-0.0516,-0.0432,-0.043,-0.0187,-0.0392,-0.0401,-0.0427,-0.0427,-0.0427,-0.0426,-0.0426,-0.0507,-0.053,-0.069,-0.0772,-0.0897,-0.0942,-0.086,-0.0714,-0.0621,-0.0541,-0.0175,-0.0408,-0.0389,-0.0387,-0.0394,-0.0417,-0.0417,-0.0417,-0.0417,-0.0552,-0.0572,-0.0824,-0.0985,-0.1089,-0.1066,-0.1032,-0.0808,-0.039,-0.0151,-0.0067,-0.0009,-0.0017,0.0027,0.0021,0.0024,0.0107,0.0108,0.0109,-0.0623,-0.0704,-0.0898,-0.1065,-0.1194,-0.1193,-0.1125,-0.0832,-0.0177,0.0149,0.0182,0.016,0.0264,0.0236,0.0319,0.0295,0.0303,0,0]}],[{"header":{"parameterUnit":"m.s-1","parameterCategory":2,"la1":30.2992,"la2":30.254,"lo1":-89.0895,"lo2":-89.0443,"dy":0.0025,"dx":0.0025,"nx":19,"ny":19,"refTime":"2026-05-11T09:00:00:Z","depth":"2","parameterNumber":2,"parameterNumberName":"U-component_of_CURRENTS"},"data":[0,0,0,-0.1825,-0.1827,-0.187,-0.1869,-0.1872,-0.1873,0,0,0,0,0,0,0,0,0,0,0,-0.1771,-0.1771,-0.1825,-0.1827,-0.187,-0.1869,-0.1872,-0.1873,0,0,0,0,0,0,0,0,0,0,0,-0.1771,-0.1771,-0.1771,-0.1827,-0.187,-0.1869,-0.1872,-0.1845,0,0,0,0,0,0,0,0,0,0,-0.1807,-0.18,-0.1771,-0.1771,-0.1828,-0.187,-0.1869,-0.1844,-0.1847,-0.1848,0,-0.1849,0,-0.1892,-0.1875,-0.1875,0,0,0,-0.1795,-0.1798,-0.1798,-0.1771,-0.1829,-0.187,-0.1841,-0.1846,-0.1849,-0.1852,-0.185,-0.1851,-0.1892,-0.1875,-0.1875,-0.1985,-0.1986,0,0,-0.1793,-0.1791,-0.1796,-0.18,-0.1832,-0.184,-0.1843,-0.1848,-0.1854,-0.185,-0.1853,-0.1892,-0.1875,-0.1875,-0.1984,-0.1985,0,0,0,-0.1807,-0.179,-0.179,-0.1798,-0.1828,-0.1842,-0.1846,-0.1853,-0.185,-0.1853,-0.1892,-0.1875,-0.1876,-0.1983,-0.1984,-0.2047,0,0,0,-0.1804,-0.1801,-0.1788,-0.179,-0.1828,-0.1858,-0.185,-0.1847,-0.1852,-0.1892,-0.1875,-0.1876,-0.1982,-0.1984,-0.2043,-0.2083,0,0,0,-0.177,-0.1799,-0.1797,-0.1789,-0.1826,-0.1859,-0.1855,-0.1849,-0.1877,-0.1875,-0.1876,-0.1981,-0.1983,-0.204,-0.2077,-0.2163,0,0,0,-0.1774,-0.1782,-0.1797,-0.1829,-0.1825,-0.1898,-0.1855,-0.1915,-0.1924,-0.1875,-0.1982,-0.1984,-0.2039,-0.2073,-0.2159,-0.2053,-0.2065,0,0,-0.1786,-0.1783,-0.1804,-0.182,-0.1902,-0.189,-0.1976,-0.1969,-0.1956,-0.1968,-0.1971,-0.2045,-0.2076,-0.2162,-0.2189,-0.2197,0,0,0,-0.1811,-0.1822,-0.1851,-0.1903,-0.1955,-0.201,-0.2019,-0.2039,-0.2065,-0.1979,-0.2075,-0.2094,-0.2146,-0.2073,-0.2081,-0.1996,-0.1995,-0.1995,-0.1995,-0.1801,-0.1845,-0.1905,-0.196,-0.2023,-0.2104,-0.2147,-0.2174,-0.2135,-0.2176,-0.2167,-0.2307,-0.223,-0.2235,-0.2186,-0.2186,-0.2186,-0.2187,-0.2187,-0.181,-0.183,-0.1938,-0.2001,-0.2089,-0.2162,-0.2268,-0.2268,-0.234,-0.2275,-0.2321,-0.217,-0.2246,-0.2192,-0.2191,-0.2191,-0.219,-0.219,-0.2189,-0.1761,-0.1781,-0.1838,-0.1961,-0.2107,-0.2213,-0.2374,-0.2411,-0.2417,-0.2458,-0.2387,-0.2383,-0.2346,-0.2481,-0.2481,-0.2482,-0.2482,-0.2483,-0.2483,-0.1657,-0.1732,-0.1796,-0.1938,-0.2057,-0.2231,-0.2432,-0.2511,-0.2525,-0.247,-0.2469,-0.2407,-0.2397,-0.2365,-0.2492,-0.2491,-0.2489,-0.2489,-0.2488,-0.1566,-0.1612,-0.1702,-0.1807,-0.207,-0.2147,-0.2399,-0.2502,-0.2608,-0.2585,-0.2483,-0.248,-0.2457,-0.2448,-0.2418,-0.2552,-0.2552,-0.2552,-0.2552,-0.1501,-0.1529,-0.1649,-0.1796,-0.1983,-0.2115,-0.2112,-0.2145,-0.2259,-0.2216,-0.223,-0.2097,-0.2103,-0.2052,-0.2052,-0.201,-0.2039,-0.2037,-0.2036,-0.1464,-0.1504,-0.1558,-0.1699,-0.1927,-0.1971,-0.1786,-0.1659,-0.1785,-0.2009,-0.2066,-0.2532,-0.2369,-0.2366,-0.231,-0.2302,-0.2244,0,0]},{"header":{"parameterUnit":"m.s-1","parameterCategory":2,"la1":30.2992,"la2":30.254,"lo1":-89.0895,"lo2":-89.0443,"dy":0.0025,"dx":0.0025,"nx":19,"ny":19,"refTime":"2026-05-11T09:00:00:Z","depth":"2","parameterNumber":3,"parameterNumberName":"V-component_of_CURRENTS"},"data":[0,0,0,-0.0167,-0.0168,-0.0185,-0.0185,-0.0085,-0.0084,0,0,0,0,0,0,0,0,0,0,0,-0.0128,-0.0128,-0.0167,-0.0169,-0.0185,-0.0185,-0.0085,-0.0084,0,0,0,0,0,0,0,0,0,0,0,-0.0128,-0.0128,-0.0128,-0.0169,-0.0185,-0.0185,-0.0085,-0.0094,0,0,0,0,0,0,0,0,0,0,-0.0089,-0.0094,-0.0128,-0.0128,-0.0169,-0.0185,-0.0185,-0.0095,-0.0093,-0.0054,0,-0.0061,0,-0.0098,-0.0078,-0.0078,0,0,0,-0.0132,-0.0095,-0.0103,-0.0128,-0.017,-0.0186,-0.0167,-0.0095,-0.0092,-0.0051,-0.006,-0.0058,-0.0097,-0.0077,-0.0077,-0.0031,-0.0031,0,0,-0.0131,-0.0124,-0.0105,-0.0102,-0.0177,-0.0167,-0.0168,-0.0094,-0.0089,-0.006,-0.0057,-0.0095,-0.0077,-0.0076,-0.0031,-0.0031,0,0,0,-0.0153,-0.0123,-0.0134,-0.0104,-0.0133,-0.0168,-0.017,-0.0091,-0.0096,-0.0057,-0.0094,-0.0076,-0.0075,-0.0031,-0.0031,-0.0081,0,0,0,-0.0151,-0.014,-0.0133,-0.0128,-0.0135,-0.0134,-0.0168,-0.0099,-0.0095,-0.0094,-0.0076,-0.0074,-0.0031,-0.0031,-0.008,-0.012,0,0,0,-0.0127,-0.0138,-0.0141,-0.0128,-0.0157,-0.0137,-0.0136,-0.0099,-0.0118,-0.0078,-0.0074,-0.0031,-0.0031,-0.0078,-0.0116,-0.012,0,0,0,-0.0116,-0.0127,-0.014,-0.0159,-0.0157,-0.0176,-0.0137,-0.0142,-0.0114,-0.0076,-0.0031,-0.0031,-0.0078,-0.0114,-0.0118,-0.0101,-0.0108,0,0,-0.0126,-0.0128,-0.0139,-0.0153,-0.0196,-0.017,-0.018,-0.0134,-0.0102,-0.0039,-0.0039,-0.008,-0.0116,-0.012,-0.0126,-0.0132,0,0,0,-0.014,-0.0156,-0.0166,-0.0197,-0.0204,-0.0208,-0.0174,-0.0155,-0.0117,-0.0097,-0.0075,-0.0096,-0.0097,-0.0082,-0.0087,-0.0033,-0.0033,-0.0033,-0.0033,-0.0137,-0.0162,-0.0204,-0.0233,-0.0238,-0.023,-0.0215,-0.0179,-0.0135,-0.0135,-0.0133,-0.0167,-0.0152,-0.0156,-0.0117,-0.0117,-0.0117,-0.0117,-0.0117,-0.0187,-0.0228,-0.0254,-0.0308,-0.0305,-0.0302,-0.0261,-0.0233,-0.02,-0.0171,-0.0168,-0.0131,-0.0164,-0.0121,-0.0121,-0.012,-0.012,-0.0119,-0.0119,-0.021,-0.0241,-0.0277,-0.0364,-0.0394,-0.0376,-0.0408,-0.0346,-0.0266,-0.0264,-0.0221,-0.022,-0.0199,-0.0254,-0.0254,-0.0254,-0.0255,-0.0255,-0.0255,-0.0226,-0.027,-0.037,-0.0433,-0.0497,-0.0535,-0.0499,-0.0469,-0.0365,-0.0287,-0.0286,-0.0213,-0.0208,-0.0206,-0.0258,-0.0257,-0.0257,-0.0257,-0.0256,-0.0294,-0.0316,-0.0479,-0.0565,-0.0699,-0.0754,-0.0691,-0.0576,-0.0494,-0.0426,-0.028,-0.0279,-0.0259,-0.0254,-0.0252,-0.0313,-0.0313,-0.0313,-0.0313,-0.0341,-0.0361,-0.0616,-0.0784,-0.0896,-0.0882,-0.0867,-0.0683,-0.0465,-0.0337,-0.0337,-0.0305,-0.0302,-0.0282,-0.0276,-0.0274,-0.0341,-0.0341,-0.0341,-0.0416,-0.0493,-0.0693,-0.0864,-0.1004,-0.1004,-0.0957,-0.0707,-0.0388,-0.0344,-0.0361,-0.0311,-0.0259,-0.0256,-0.0219,-0.0213,-0.0206,0,0]}],[{"header":{"parameterUnit":"m.s-1","parameterCategory":2,"la1":30.2992,"la2":30.254,"lo1":-89.0895,"lo2":-89.0443,"dy":0.0025,"dx":0.0025,"nx":19,"ny":19,"refTime":"2026-05-11T09:00:00:Z","depth":"4","parameterNumber":2,"parameterNumberName":"U-component_of_CURRENTS"},"data":[0,0,0,-0.063,-0.0631,-0.0616,-0.0616,-0.0732,-0.0734,0,0,0,0,0,0,0,0,0,0,0,-0.0622,-0.0622,-0.063,-0.0631,-0.0616,-0.0616,-0.0732,-0.0734,0,0,0,0,0,0,0,0,0,0,0,-0.0622,-0.0622,-0.0622,-0.0631,-0.0616,-0.0616,-0.0732,-0.0706,0,0,0,0,0,0,0,0,0,0,-0.0701,-0.0637,-0.0622,-0.0622,-0.0631,-0.0616,-0.0616,-0.0703,-0.0707,-0.0782,0,-0.0777,0,-0.0776,-0.0746,-0.0747,0,0,0,-0.0615,-0.0632,-0.0678,-0.0622,-0.0631,-0.0616,-0.0618,-0.0704,-0.071,-0.0789,-0.0778,-0.0782,-0.0778,-0.0748,-0.0748,-0.0933,-0.0934,0,0,-0.0616,-0.0577,-0.0673,-0.0681,-0.0627,-0.0619,-0.0618,-0.0706,-0.0686,-0.0779,-0.0784,-0.078,-0.0749,-0.075,-0.0932,-0.0933,0,0,0,-0.0629,-0.0577,-0.0616,-0.0677,-0.0673,-0.0619,-0.0618,-0.0681,-0.0707,-0.0786,-0.0781,-0.075,-0.0752,-0.0932,-0.0933,-0.0969,0,0,0,-0.0629,-0.0587,-0.0616,-0.0587,-0.067,-0.0649,-0.0591,-0.07,-0.071,-0.078,-0.075,-0.0754,-0.0931,-0.0932,-0.0966,-0.1029,0,0,0,-0.0623,-0.0585,-0.0594,-0.0586,-0.0593,-0.0647,-0.0674,-0.0701,-0.071,-0.0747,-0.0754,-0.093,-0.0932,-0.0964,-0.1024,-0.1134,0,0,0,-0.057,-0.0586,-0.0592,-0.0613,-0.0594,-0.0668,-0.0673,-0.0686,-0.0711,-0.0751,-0.0931,-0.0932,-0.0963,-0.1021,-0.113,-0.0812,0,0,0,-0.0577,-0.0584,-0.0609,-0.0617,-0.0685,-0.0669,-0.0756,-0.0766,-0.077,-0.0908,-0.0911,-0.0967,-0.1024,-0.1133,-0.0905,0,0,0,0,-0.0606,-0.0614,-0.064,-0.0668,-0.0727,-0.079,-0.0795,-0.0837,-0.0897,-0.0797,-0.0988,-0.1025,-0.1092,-0.0893,-0.094,-0.094,-0.094,-0.0939,-0.0939,-0.0527,-0.0598,-0.0642,-0.073,-0.0785,-0.0869,-0.0944,-0.1006,-0.0975,-0.1002,-0.1067,-0.1199,-0.0986,-0.1057,-0.1058,-0.1058,-0.1058,-0.1058,-0.1058,-0.0525,-0.0559,-0.0648,-0.0709,-0.0823,-0.0892,-0.1089,-0.1094,-0.1252,-0.1163,-0.1225,-0.0959,-0.1062,-0.1061,-0.1061,-0.106,-0.106,-0.106,-0.106,-0.0453,-0.0492,-0.0532,-0.0658,-0.0763,-0.0899,-0.106,-0.1216,-0.1293,-0.1371,-0.1164,-0.1271,-0.1257,-0.1372,-0.1373,-0.1374,-0.1374,-0.1375,-0.1375,-0.036,-0.0431,-0.0485,-0.0608,-0.066,-0.0793,-0.1054,-0.1086,-0.1216,-0.1227,-0.1379,-0.1308,-0.1297,-0.1278,-0.1387,-0.1385,-0.1383,-0.1382,-0.1381,-0.031,-0.0334,-0.0442,-0.0486,-0.0585,-0.0667,-0.0914,-0.0969,-0.1063,-0.1013,-0.1174,-0.1181,-0.1164,-0.1159,-0.1134,-0.1204,-0.1201,-0.1197,0,-0.0258,-0.0282,-0.04,-0.0436,-0.0474,-0.0569,-0.061,-0.0656,-0.0826,-0.0923,-0.0979,-0.1164,-0.1167,-0.1139,-0.113,-0.1094,0,0,0,-0.024,-0.0285,-0.0331,-0.0357,-0.0358,-0.0426,-0.0611,-0.0623,-0.0927,-0.068,-0.1107,-0.113,-0.0872,-0.1422,-0.1416,-0.1403,-0.1375,0,0]},{"header":{"parameterUnit":"m.s-1","parameterCategory":2,"la1":30.2992,"la2":30.254,"lo1":-89.0895,"lo2":-89.0443,"dy":0.0025,"dx":0.0025,"nx":19,"ny":19,"refTime":"2026-05-11T09:00:00:Z","depth":"4","parameterNumber":3,"parameterNumberName":"V-component_of_CURRENTS"},"data":[0,0,0,0.0304,0.0306,0.0345,0.0345,0.0253,0.0252,0,0,0,0,0,0,0,0,0,0,0,0.029,0.0291,0.0304,0.0306,0.0345,0.0345,0.0253,0.0252,0,0,0,0,0,0,0,0,0,0,0,0.029,0.0291,0.0292,0.0306,0.0345,0.0345,0.0253,0.0254,0,0,0,0,0,0,0,0,0,0,0.0232,0.0252,0.0291,0.0292,0.0307,0.0345,0.0345,0.0255,0.0254,0.0201,0,0.0227,0,0.0243,0.0244,0.0244,0,0,0,0.0286,0.0254,0.0263,0.0292,0.0307,0.0345,0.0322,0.0256,0.0254,0.0198,0.0226,0.0223,0.0242,0.0243,0.0243,0.0163,0.0162,0,0,0.0284,0.0289,0.0265,0.0263,0.034,0.0321,0.0323,0.0256,0.0261,0.0226,0.0222,0.024,0.0243,0.0242,0.0163,0.0163,0,0,0,0.0291,0.0288,0.0301,0.0265,0.0287,0.0322,0.0325,0.0264,0.0269,0.0221,0.0239,0.0242,0.0241,0.0163,0.0163,0.0139,0,0,0,0.0289,0.0294,0.0301,0.0303,0.029,0.0298,0.0335,0.0274,0.0267,0.0239,0.0242,0.0239,0.0163,0.0163,0.014,0.009,0,0,0,0.0284,0.0293,0.0305,0.0304,0.033,0.03,0.0301,0.0273,0.0277,0.0244,0.0239,0.0163,0.0163,0.0141,0.0092,0.0073,0,0,0,0.0276,0.0268,0.0306,0.0285,0.033,0.0283,0.0302,0.0276,0.0247,0.0241,0.0163,0.0163,0.0141,0.0094,0.0075,-0.0026,0,0,0,0.0246,0.0265,0.0243,0.0277,0.022,0.0275,0.0208,0.02,0.0228,0.0171,0.017,0.014,0.0092,0.0074,-0.0028,0,0,0,0,0.0217,0.0209,0.0194,0.0182,0.0167,0.0142,0.0158,0.0176,0.0186,0.0218,0.0145,0.0115,0.0104,0.0051,0.0162,0.0162,0.0162,0.0162,0.0162,0.0202,0.017,0.011,0.0074,0.005,0.0051,0.0043,0.0075,0.0116,0.0147,0.0102,0.0072,0.0017,0.013,0.013,0.013,0.0129,0.0129,0.0129,0.0122,0.0076,0.0037,-0.0026,-0.0048,-0.0079,-0.0069,-0.001,0.0016,0.0075,0.0068,0.0037,0.0127,0.0128,0.0128,0.0128,0.0128,0.0128,0.0129,0.0106,0.0068,0.0039,-0.0072,-0.0131,-0.0146,-0.022,-0.0138,-0.0028,-0.0028,-0.0059,0.0043,0.0038,-0.0001,-0.0001,-0.0001,-0.0002,-0.0002,-0.0002,0.01,0.005,-0.0039,-0.0132,-0.0206,-0.0274,-0.0289,-0.0303,-0.0195,-0.0131,-0.0027,0.0028,0.0032,0.003,-0.0007,-0.0006,-0.0005,-0.0005,-0.0005,0.0031,0.0045,-0.0116,-0.0204,-0.0393,-0.0432,-0.0471,-0.0457,-0.0453,-0.0406,-0.0184,-0.0174,-0.0185,-0.0176,-0.0186,-0.0287,-0.0289,-0.029,0,0.001,-0.0006,-0.0213,-0.0386,-0.0532,-0.0547,-0.062,-0.062,-0.0452,-0.0375,-0.0401,-0.0146,-0.0139,-0.0146,-0.0141,-0.0152,0,0,0,-0.0064,-0.0112,-0.0272,-0.0419,-0.0578,-0.0601,-0.0621,-0.0587,-0.0464,-0.0558,-0.0327,-0.0318,-0.0324,-0.002,-0.0012,-0.0007,-0.0012,0,0]}]]